Regional Weather Roundup
Issued by NWS San Diego, CA

Home | Current Version | Previous Version | Text Only | Print | Product List | Glossary On
Versions: 1 2 3 4 5 6 7 8 9 10 11 12 13 14 15 16 17 18 19 20 21 22 23 24 25 26 27 28 29 30 31 32 33 34 35 36 37 38 39 40 41 42 43 44 45 46 47 48 49 50
000
ASUS46 KSGX 240211
RWRSGX

SAN DIEGO HOURLY WEATHER ROUNDUP
NATIONAL WEATHER SERVICE SAN DIEGO CA
700 PM PDT SAT SEP 23 2017

NOTE: "FAIR" INDICATES FEW OR NO CLOUDS BELOW 12,000 FEET WITH NO
SIGNIFICANT WEATHER AND/OR OBSTRUCTIONS TO VISIBILITY.

CAZ042-043-060-061-PZZ750-775-240300-

GREATER SAN DIEGO AREA

CITY           SKY/WX    TMP DP  RH WIND       PRES   REMARKS
SAN DIEGO AP   PTCLDY    67  55  65 W7        29.85S
NATIONAL CITY    N/A     67  58  72 CALM      29.86S
CHULA VISTA      N/A     66  59  76 W2        29.76S
IMPERIAL BEACH CLEAR     65  54  67 W5        29.84S
BROWN FIELD    CLEAR     64  55  72 W5        29.84S
MIRAMAR MCAS   PTCLDY    69  55  60 W7        29.84S
MONTGOMERY FLD CLEAR     68  54  60 NW6       29.84S
GILLESPIE FLD  CLEAR     68  54  60 W8        29.83F

$$

NORTH SAN DIEGO COUNTY

CITY           SKY/WX    TMP DP  RH WIND       PRES   REMARKS
CAMP PENDLETON CLEAR     65  55  70 VRB5      29.83S
OCEANSIDE AP   CLEAR     65  56  72 W5        29.83S
OCEANSIDE HBR    N/A     65  57  75 N9        29.86S
VISTA            N/A     66  56  70 CALM      29.81S
CARLSBAD       CLEAR     66  56  70 W3        29.83S
DEL MAR          N/A     66  58  75 CALM      29.86R
LA JOLLA SCRIP   N/A     65  58  76 SW2       29.83S
FALLBROOK        N/A     65  55  70 SW1       29.84S
ESCONDIDO        N/A     67  54  63 W3        29.85R
SAN MARCOS       N/A     66  55  69 NW8       29.86R
POWAY            N/A     66  55  66 CALM      29.85S

$$

EAST SAN DIEGO COUNTY

CITY           SKY/WX    TMP DP  RH WIND       PRES   REMARKS
RAMONA         CLEAR     62  52  69 W6        29.85R
SANTEE LAKES     N/A     67  55  66 CALM      29.82
LA MESA          N/A     65  55  69 CALM      29.77S
JAMUL            N/A     63  54  71 CALM      29.84S
DESCANSO N       N/A     55  49  79 CALM      29.80S
CAMPO            N/A     61  50  67 W5        29.83R

$$

ORANGE COUNTY AND THE LOS ANGELES BASIN

CITY           SKY/WX    TMP DP  RH WIND       PRES   REMARKS
JOHN WAYNE AP  CLEAR     67  57  70 SW7       29.84R
LAGUNA BEACH     N/A     67  59  74 CALM      29.79S
LAKE FOREST FR   N/A     65  50  60 W2        29.74R
HUNTINGTON BCH   N/A     66  60  80 W7        29.85R
LOS ALAMITOS   FAIR      69  47  45 W6        29.83R
FULLERTON      PTCLDY    70  48  45 W7        29.82S
LONG BEACH     CLEAR     68  50  52 W7        29.83S
L.A. AP        PTCLDY    65  58  78 W12       29.84S
L.A. DOWNTOWN  CLEAR     68  51  54 VRB5      29.83S

$$

THE INLAND EMPIRE

CITY           SKY/WX    TMP DP  RH WIND       PRES   REMARKS
CORONA         CLEAR     68  50  52 W9        29.83R
CHINO          PTCLDY    69  51  52 SW12      29.84R
ONTARIO        PTCLDY    68  50  52 SW12      29.83R
SAN BERNARDINO PTCLDY    70  41  35 SW10      29.84R
RIVERSIDE AP   CLEAR     67  49  52 W10       29.83R
MORENO VALLEY    N/A     66  53  63 W7        27.96R
MARCH ARB      CLEAR     66  47  50 NW9       29.84R
HORSETHIEF CYN   N/A     68  47  46 CALM      29.83R
PERRIS           N/A     67  52  58 W5          N/A
HEMET EAST       N/A     65  49  55 SW2       29.88R
FRENCH VALLEY  FAIR      64  50  59 SW6       29.85R
TEMECULA         N/A     66  54  66 SW3       29.88R

$$

SAN BERNARDINO AND RIVERSIDE COUNTY MOUNTAINS

CITY           SKY/WX    TMP DP  RH WIND       PRES   REMARKS
BIG BEAR AP    CLEAR     46  21  36 CALM      29.99R
PINE COVE        N/A     47  44  89 CALM      29.88S

$$

SOUTHERN DESERT INCLUDING THE COACHELLA VALLEY

CITY           SKY/WX    TMP DP  RH WIND       PRES   REMARKS
PALM SPRINGS   CLEAR     82  41  23 NW12      29.75R
THOUSAND PALMS   N/A     80  43  26 NW9       29.71R
PALM DESERT      N/A     82  43  25 CALM      30.32S
THERMAL        CLEAR     82  32  16 NW7       29.69R
BLYTHE         CLEAR     81  24  12 NW6       29.72R
IMPERIAL AP    CLEAR     81  34  18 NW3       29.70S
EL CENTRO NAS  PTCLDY    79  27  14 N3        29.72S
YUMA AZ        CLEAR     80  36  20 W7        29.70S
MEXICALI       CLEAR     81  25  12 NW5       29.71S

$$

UPPER DESERT

CITY           SKY/WX    TMP DP  RH WIND       PRES   REMARKS
VICTORVILLE AP CLEAR     66  23  19 CALM      29.88R
HESPERIA         N/A     65  28  24 CALM      29.95S
PALMDALE       CLEAR     68  34  28 NW20G25   29.87R
LANCASTER      CLEAR     66  34  30 W16       29.87R
EDWARDS AFB    CLEAR     69  33  26 W12       29.83S
DAGGETT        CLEAR     70  28  21 E6        29.83R
29 PALMS N     CLEAR     72  23  16 N10       29.89R
NEEDLES        CLEAR     80  26  13 N8        29.75R

$$

REGIONAL REPORTS

CITY           SKY/WX    TMP DP  RH WIND       PRES   REMARKS
SANTA BARBARA  CLEAR     64  58  80 SE5       29.81S
SANDBERG       CLEAR     54  36  50 N14G20    29.95S
LAS VEGAS NV   PTCLDY    68  28  22 NE16      29.83R
PHOENIX AZ     CLEAR     81  29  15 W14       29.70S
TIJUANA        CLEAR     64  54  68 W5        29.86F

$$

OFFSHORE ISLANDS

CITY           SKY/WX    TMP DP  RH WIND       PRES   REMARKS
CATALINA ARPT  CLEAR     60  54  80 W9        29.87S
SAN NICOLAS IS FOG       61  59  93 NW17      29.85S VSB 1/2

$$

MARINE AND OFFSHORE BUOY REPORTS

STATION/POSITION SKY/WX   TEMP    WIND        PRES    VSBY  SWELL
                          AIR SEA DIR/SP/G                  HT/PER/DIR
                          (F)     (DEG/KT/KT) (MB)    (MI)  (FT/S/D)
TANNER BANKS               65 65  320/ 16/ 19 1010.6R         5/330/11
S CLEMENTE BASIN           66 70  310/  8/ 10 1010.5R         5/300/11
SAN NICOLAS IS.               63                N/A           3/310/11
SO. S. ROSA ISLA           62 62  310/ 16/ 19 1010.7R         5/310/11
W. S. BARBARA CH           60 60  300/ 14/ 16 1010.6
M. S. BARBARA CH           66 64  270/ 16/ 19 1010.2
S. MONICA BASIN                   270/ 14/ 16 1009.8F
S PEDRO CHANNEL               64                N/A           2/190/11
CMP PENDLETON NS              68                N/A           2/220/13
OCEANSIDE OFFSHR              68                N/A           2/210/11
TORREY PINES OTR              68                N/A           2/200/11
SAN DIEGO BAY                 73              1010.7F
POINT LOMA SOUTH              71                N/A           2/230/11

$$





USA.gov is the U.S. government's official web portal to all federal, state and local government web resources and services.